Regional Weather Roundup
Issued by NWS Bismarck, ND

Home | Current Version | Previous Version | Text Only | Print | Product List | Glossary On
Versions: 1 2 3 4 5 6 7 8 9 10 11 12 13 14 15 16 17 18 19 20 21 22 23 24 25 26 27 28 29 30 31 32 33 34 35 36 37 38 39 40 41 42 43 44 45 46 47 48 49 50
000
ASUS43 KBIS 191302
RWRBIS

NWR BROADCAST TEXT
NATIONAL WEATHER SERVICE BISMARCK ND
700 AM CST SUN FEB 19 2017

NOTE: "FAIR" INDICATES FEW OR NO CLOUDS BELOW 12,000 FEET WITH NO
SIGNIFICANT WEATHER AND/OR OBSTRUCTIONS TO VISIBILITY.


CITY           SKY/WX    TMP DP  RH WIND       PRES   REMARKS
WILLISTON      CLOUDY    32  30  92 E8        29.57S
MINOT          CLOUDY    34  31  88 E8        29.64S
MINOT AFB      NOT AVBL
BISMARCK       FAIR      35  32  88 NE8       29.61S
DICKINSON      FOG       29  28  96 E8        29.51F VSB 1/4
GARRISON         N/A     33  31  92 E12       29.59F
HETTINGER ARPT FAIR      32  29  88 E5        29.53F
JAMESTOWN      MOCLDY    36  34  92 SE12      29.68F
CARRINGTON     FAIR      34  34 100 E14       29.69F
HAZEN            N/A    N/A N/A N/A E7        29.61S
MANDAN         PTSUNNY   32  32 100 E7        29.60S
STANLEY        CLOUDY    30  30 100 E13       29.62F
WATFORD CITY   CLOUDY    32  32 100 E8        29.57R
$$

CITY           SKY/WX    TMP DP  RH WIND       PRES   REMARKS
GRAND FORKS    MOCLDY    36  29  75 E9        29.79S
GRAND FORKS AF FAIR      33  31  92 E5        29.78F
DEVILS LAKE    CLOUDY    34  31  88 E16       29.71F
FARGO          FAIR      42  37  82 SE16      29.77S
CAVALIER       FAIR      32  30  93 E6        29.83R
GRAFTON        FAIR      34  32  93 E10       29.83S
GWINNER        FAIR      36  36 100 E6        29.74F
ROLLA          FAIR      32  30  93 E13       29.74F
$$

CITY           SKY/WX    TMP DP  RH WIND       PRES   REMARKS
ABERDEEN       FAIR      41  33  73 S10       29.71R
MOBRIDGE       FAIR      38  31  76 SE9       29.58F
BUFFALO          N/A     38  32  79 S9        29.45S
RAPID CITY     FAIR      38  29  70 E5        29.56R
GLASGOW        FAIR      32  29  88 SE12      29.46F
SIDNEY         CLOUDY    31  30  96 E5        29.55F FOG
WOLF POINT     CLOUDY    32  29  88 E15       29.52S
GLENDIVE       FAIR      29  29 100 NE13      29.50F WCI  19
MILES CITY     FAIR      31  28  89 NE7       29.46S
BAKER          FAIR      32  29  88 SE9       29.50S
$$

CITY           SKY/WX    TMP DP  RH WIND       PRES   REMARKS
BILLINGS       FAIR      39  32  76 CALM      29.42F
GREAT FALLS    MOCLDY    43  30  60 S13       29.35S
$$




USA.gov is the U.S. government's official web portal to all federal, state and local government web resources and services.